軌道要素
Epoch 2020 Mar. 12.0 TT = JDT 2458920.5
T 2020 Mar. 15.56242 TT Rudenko
q 0.8378174 (2000.0) P Q
z +0.0042471 Peri. 57.49742 +0.33301896 -0.80026124
+/-0.0000022 Node 31.36623 +0.12452873 -0.48690695
e 0.9964417 Incl. 73.34825 +0.93466088 +0.35000510
From 924 observations 2019 Dec. 16-2020 July 11, mean residual 1".2.
|